• In Hungary
  • List of Countries
  • For 7 days
  • Water Temperature
  • Satellite Maps
  • Weather Map
  • News
  • Weather Widgets
  • user-avatar
    Login

    Hourly Weather Loha

    Today, 23 October, Tuesday

    Time Temperature Precipitation Wind Pressure Humidity
    00:00 +13°C° 0 mm 1 mps 584 mmHg 83%
    01:00 +13°C° 0 mm 1 mps 584 mmHg 83%
    02:00 +13°C° 0 mm 1 mps 584 mmHg 82%
    03:00 +13°C° 0 mm 1 mps 583 mmHg 82%
    04:00 +12°C° 0 mm 1 mps 583 mmHg 82%
    05:00 +13°C° 0 mm 1 mps 584 mmHg 78%
    06:00 +14°C° 0 mm 1 mps 584 mmHg 74%
    07:00 +14°C° 0 mm 1 mps 585 mmHg 71%
    08:00 +18°C° 0 mm 1 mps 586 mmHg 60%
    09:00 +21°C° 0 mm 1 mps 588 mmHg 50%
    10:00 +24°C° 0 mm 1 mps 589 mmHg 40%
    11:00 +25°C° 0 mm 1 mps 589 mmHg 37%
    12:00 +26°C° 0 mm 2 mps 589 mmHg 34%
    13:00 +27°C° 0 mm 2 mps 589 mmHg 31%
    14:00 +26°C° 0 mm 2 mps 588 mmHg 36%
    15:00 +24°C° 0 mm 2 mps 587 mmHg 42%
    16:00 +21°C° 0 mm 2 mps 585 mmHg 48%
    17:00 +20°C° 0.1 mm 1 mps 585 mmHg 57%
    18:00 +18°C° 0.1 mm 1 mps 585 mmHg 66%
    19:00 +15°C° 0.1 mm 1 mps 584 mmHg 75%
    20:00 +15°C° 0.1 mm 1 mps 584 mmHg 78%
    21:00 +14°C° 0.1 mm 1 mps 585 mmHg 81%
    22:00 +13°C° 0.1 mm 1 mps 585 mmHg 84%
    23:00 +13°C° 0.1 mm 1 mps 584 mmHg 85%

    Tomorrow, 24 October, Wednesday

    Time Temperature Precipitation Wind Pressure Humidity
    00:00 +13°C° 0.1 mm 1 mps 584 mmHg 85%
    01:00 +13°C° 0.1 mm 1 mps 584 mmHg 86%
    02:00 +12°C° 0 mm 1 mps 584 mmHg 85%
    03:00 +12°C° 0 mm 1 mps 583 mmHg 84%
    04:00 +12°C° 0 mm 1 mps 583 mmHg 84%
    05:00 +12°C° 0 mm 1 mps 584 mmHg 78%
    06:00 +13°C° 0 mm 1 mps 584 mmHg 72%
    07:00 +14°C° 0 mm 1 mps 585 mmHg 66%
    08:00 +18°C° 0 mm 1 mps 587 mmHg 53%
    09:00 +22°C° 0 mm 1 mps 588 mmHg 41%
    10:00 +25°C° 0 mm 1 mps 590 mmHg 29%
    11:00 +27°C° 0 mm 1 mps 590 mmHg 27%
    12:00 +28°C° 0 mm 2 mps 590 mmHg 25%
    13:00 +29°C° 0 mm 2 mps 589 mmHg 24%
    14:00 +28°C° 0 mm 2 mps 588 mmHg 30%
    15:00 +26°C° 0 mm 2 mps 587 mmHg 35%
    16:00 +25°C° 0 mm 2 mps 586 mmHg 41%
    17:00 +22°C° 0.2 mm 1 mps 585 mmHg 53%
    18:00 +19°C° 0.2 mm 1 mps 585 mmHg 65%
    19:00 +15°C° 0.2 mm 1 mps 584 mmHg 78%
    20:00 +15°C° 0.2 mm 1 mps 584 mmHg 79%
    21:00 +14°C° 0.2 mm 1 mps 585 mmHg 81%
    22:00 +14°C° 0.2 mm 1 mps 585 mmHg 83%
    23:00 +13°C° 0.1 mm 1 mps 585 mmHg 82%

    Day after tomorrow, 25 October, Thursday

    Time Temperature Precipitation Wind Pressure Humidity
    00:00 +13°C° 0.1 mm 1 mps 584 mmHg 81%
    01:00 +13°C° 0.1 mm 1 mps 584 mmHg 81%
    02:00 +13°C° 0.1 mm 1 mps 584 mmHg 80%
    03:00 +13°C° 0.1 mm 1 mps 583 mmHg 80%
    04:00 +13°C° 0.1 mm 1 mps 583 mmHg 79%
    05:00 +12°C° 0 mm 0 mps 584 mmHg 76%
    06:00 +13°C° 0 mm 0 mps 584 mmHg 73%
    07:00 +14°C° 0 mm 0 mps 585 mmHg 70%
    08:00 +18°C° 0 mm 1 mps 586 mmHg 61%
    09:00 +20°C° 0 mm 1 mps 587 mmHg 52%
    10:00 +23°C° 0 mm 1 mps 589 mmHg 43%
    11:00 +24°C° 0 mm 1 mps 588 mmHg 41%
    12:00 +25°C° 0 mm 2 mps 588 mmHg 39%
    13:00 +25°C° 0 mm 2 mps 588 mmHg 37%
    14:00 +24°C° 0.2 mm 2 mps 587 mmHg 40%
    15:00 +23°C° 0.2 mm 2 mps 586 mmHg 44%
    16:00 +21°C° 0.2 mm 2 mps 585 mmHg 48%
    17:00 +20°C° 0.1 mm 1 mps 585 mmHg 57%
    18:00 +18°C° 0.1 mm 1 mps 584 mmHg 67%
    19:00 +15°C° 0.1 mm 1 mps 584 mmHg 76%
    20:00 +14°C° 0.1 mm 0 mps 584 mmHg 79%
    21:00 +13°C° 0.1 mm 0 mps 585 mmHg 81%
    22:00 +13°C° 0.1 mm 0 mps 585 mmHg 84%
    23:00 +13°C° 0 mm 0 mps 584 mmHg 85%

    26 October, Friday

    Time Temperature Precipitation Wind Pressure Humidity
    00:00 +12°C° 0 mm 0 mps 584 mmHg 86%
    01:00 +12°C° 0 mm 0 mps 584 mmHg 87%
    02:00 +12°C° 0 mm 0 mps 583 mmHg 87%
    03:00 +12°C° 0 mm 0 mps 583 mmHg 88%
    04:00 +12°C° 0 mm 0 mps 583 mmHg 88%
    05:00 +12°C° 0 mm 0 mps 583 mmHg 85%
    06:00 +13°C° 0 mm 0 mps 584 mmHg 81%
    07:00 +14°C° 0 mm 0 mps 585 mmHg 78%
    08:00 +18°C° 0 mm 1 mps 586 mmHg 69%
    09:00 +20°C° 0 mm 1 mps 587 mmHg 61%
    10:00 +22°C° 0 mm 1 mps 588 mmHg 53%
    11:00 +23°C° 0.1 mm 1 mps 588 mmHg 50%
    12:00 +24°C° 0.1 mm 2 mps 587 mmHg 48%
    13:00 +24°C° 0.1 mm 2 mps 587 mmHg 46%
    14:00 +23°C° 0.4 mm 2 mps 586 mmHg 50%
    15:00 +21°C° 0.4 mm 2 mps 585 mmHg 55%
    16:00 +20°C° 0.4 mm 2 mps 584 mmHg 60%
    17:00 +20°C° 0.4 mm 1 mps 584 mmHg 67%
    18:00 +18°C° 0.4 mm 1 mps 584 mmHg 74%
    19:00 +14°C° 0.4 mm 0 mps 584 mmHg 82%
    20:00 +14°C° 0.3 mm 0 mps 584 mmHg 84%
    21:00 +14°C° 0.3 mm 0 mps 585 mmHg 86%
    22:00 +14°C° 0.3 mm 1 mps 585 mmHg 88%
    23:00 +13°C° 0.2 mm 0 mps 585 mmHg 88%

    27 October, Saturday

    Time Temperature Precipitation Wind Pressure Humidity
    00:00 +13°C° 0.2 mm 0 mps 584 mmHg 88%
    01:00 +13°C° 0.2 mm 0 mps 584 mmHg 89%
    02:00 +13°C° 0.2 mm 0 mps 584 mmHg 89%
    03:00 +12°C° 0.2 mm 0 mps 584 mmHg 89%
    04:00 +12°C° 0.2 mm 0 mps 583 mmHg 89%
    05:00 +13°C° 0.1 mm 0 mps 584 mmHg 86%
    06:00 +13°C° 0.1 mm 0 mps 585 mmHg 84%
    07:00 +14°C° 0.1 mm 0 mps 585 mmHg 81%
    08:00 +18°C° 0.2 mm 1 mps 586 mmHg 73%
    09:00 +20°C° 0.2 mm 1 mps 587 mmHg 65%
    10:00 +22°C° 0.2 mm 1 mps 588 mmHg 57%
    11:00 +21°C° 0.2 mm 1 mps 588 mmHg 58%
    12:00 +21°C° 0.2 mm 1 mps 587 mmHg 59%
    13:00 +21°C° 0.2 mm 1 mps 586 mmHg 60%
    14:00 +20°C° 0.3 mm 1 mps 586 mmHg 61%
    15:00 +19°C° 0.3 mm 2 mps 585 mmHg 62%
    16:00 +19°C° 0.3 mm 2 mps 585 mmHg 63%
    17:00 +19°C° 0.2 mm 1 mps 585 mmHg 69%
    18:00 +16°C° 0.2 mm 1 mps 585 mmHg 75%
    19:00 +15°C° 0.2 mm 1 mps 585 mmHg 82%
    20:00 +13°C° 0.1 mm 0 mps 585 mmHg 84%
    21:00 +13°C° 0.1 mm 0 mps 585 mmHg 86%
    22:00 +12°C° 0.1 mm 0 mps 585 mmHg 88%
    23:00 +12°C° 0 mm 0 mps 585 mmHg 88%

    28 October, Sunday

    Time Temperature Precipitation Wind Pressure Humidity
    00:00 +12°C° 0 mm 0 mps 584 mmHg 87%
    01:00 +12°C° 0 mm 0 mps 584 mmHg 87%
    02:00 +12°C° 0.1 mm 0 mps 584 mmHg 86%
    03:00 +12°C° 0.1 mm 0 mps 584 mmHg 85%
    04:00 +12°C° 0.1 mm 0 mps 584 mmHg 84%
    05:00 +12°C° 0.1 mm 0 mps 584 mmHg 82%
    06:00 +13°C° 0.1 mm 0 mps 585 mmHg 79%
    07:00 +14°C° 0.1 mm 0 mps 586 mmHg 76%
    08:00 +18°C° 0 mm 1 mps 587 mmHg 67%
    09:00 +21°C° 0 mm 1 mps 588 mmHg 58%
    10:00 +23°C° 0 mm 1 mps 589 mmHg 49%
    11:00 +23°C° 0.2 mm 1 mps 588 mmHg 50%
    12:00 +23°C° 0.2 mm 2 mps 588 mmHg 50%
    13:00 +23°C° 0.2 mm 2 mps 587 mmHg 50%
    14:00 +21°C° 0.3 mm 2 mps 586 mmHg 54%
    15:00 +20°C° 0.3 mm 2 mps 586 mmHg 57%
    16:00 +19°C° 0.3 mm 2 mps 585 mmHg 61%
    17:00 +19°C° 0.3 mm 1 mps 585 mmHg 68%
    18:00 +16°C° 0.3 mm 1 mps 585 mmHg 75%
    19:00 +14°C° 0.3 mm 0 mps 584 mmHg 82%
    20:00 +13°C° 0.1 mm 0 mps 584 mmHg 85%
    21:00 +13°C° 0.1 mm 0 mps 585 mmHg 87%
    22:00 +12°C° 0.1 mm 0 mps 585 mmHg 90%
    23:00 +12°C° 0.1 mm 0 mps 584 mmHg 90%

    29 October, Monday

    Time Temperature Precipitation Wind Pressure Humidity
    00:00 +12°C° 0.1 mm 0 mps 584 mmHg 90%
    01:00 +11°C° 0.1 mm 0 mps 584 mmHg 90%
    02:00 +11°C° 0.1 mm 0 mps 584 mmHg 90%
    03:00 +11°C° 0.1 mm 0 mps 583 mmHg 91%
    04:00 +11°C° 0.1 mm 0 mps 583 mmHg 91%
    05:00 +12°C° 0 mm 0 mps 584 mmHg 87%
    06:00 +13°C° 0 mm 0 mps 585 mmHg 82%
    07:00 +13°C° 0 mm 0 mps 585 mmHg 78%
    08:00 +18°C° 0.1 mm 1 mps 587 mmHg 68%
    09:00 +20°C° 0.1 mm 1 mps 588 mmHg 58%
    10:00 +23°C° 0.1 mm 1 mps 589 mmHg 48%
    11:00 +23°C° 0.3 mm 1 mps 588 mmHg 49%
    12:00 +23°C° 0.3 mm 2 mps 588 mmHg 50%
    13:00 +23°C° 0.3 mm 2 mps 587 mmHg 51%
    14:00 +21°C° 0.6 mm 2 mps 586 mmHg 56%
    15:00 +20°C° 0.6 mm 2 mps 585 mmHg 61%
    16:00 +19°C° 0.6 mm 2 mps 585 mmHg 66%
    17:00 +18°C° 0.7 mm 1 mps 584 mmHg 73%
    18:00 +16°C° 0.7 mm 1 mps 584 mmHg 80%
    19:00 +13°C° 0.7 mm 0 mps 584 mmHg 87%
    Show more